CTN6B LDDU-LDZA

Flight info

Callsign CTN6B
Flight time 0h 43m
Altitude 34000
Route AMUGO DCT SIRMI DCT RUDIK
Aircraft A319/M-SDE3FGHIRWY/LB1

Departure

Time 2026-05-04 03:25
Airport Dubrovnik Ruđer Bošković Airport (LDDU)

Arrival

Time 2026-05-04 04:09
Airport Zagreb Franjo Tuđman International Airport (LDZA)
Time Latitude Longitude Altitude Speed Heading
2026-05-04 03:08 42.56127 18.26200 534 ft 0 kts 208°
2026-05-04 03:18 42.56133 18.26205 534 ft 2 kts 208°
2026-05-04 03:18 42.56145 18.26213 534 ft 2 kts 208°
2026-05-04 03:18 42.56157 18.26222 534 ft 2 kts 211°
2026-05-04 03:18 42.56168 18.26233 534 ft 2 kts 236°
2026-05-04 03:19 42.56174 18.26248 534 ft 1 kts 270°
2026-05-04 03:19 42.56173 18.26262 534 ft 2 kts 297°
2026-05-04 03:19 42.56167 18.26277 534 ft 2 kts 298°
2026-05-04 03:19 42.56163 18.26288 534 ft 0 kts 298°
2026-05-04 03:21 42.56170 18.26270 534 ft 4 kts 298°
2026-05-04 03:21 42.56191 18.26217 534 ft 9 kts 298°
2026-05-04 03:21 42.56226 18.26128 534 ft 13 kts 298°
2026-05-04 03:21 42.56274 18.26008 534 ft 16 kts 298°
2026-05-04 03:22 42.56326 18.25876 534 ft 16 kts 298°
2026-05-04 03:22 42.56382 18.25736 534 ft 19 kts 298°
2026-05-04 03:22 42.56450 18.25565 534 ft 21 kts 298°
2026-05-04 03:22 42.56522 18.25387 534 ft 22 kts 298°
2026-05-04 03:23 42.56593 18.25207 534 ft 21 kts 298°
2026-05-04 03:23 42.56663 18.25030 534 ft 21 kts 298°
2026-05-04 03:23 42.56731 18.24856 534 ft 20 kts 298°
2026-05-04 03:23 42.56796 18.24701 534 ft 13 kts 309°
2026-05-04 03:24 42.56880 18.24679 534 ft 13 kts 18°
2026-05-04 03:24 42.56937 18.24773 533 ft 14 kts 75°
2026-05-04 03:24 42.56900 18.24899 533 ft 20 kts 119°
2026-05-04 03:24 42.56702 18.25399 533 ft 100 kts 118°
2026-05-04 03:25 42.56271 18.26485 629 ft 151 kts 118°
2026-05-04 03:25 42.55770 18.27711 1342 ft 147 kts 117°
2026-05-04 03:25 42.55291 18.28915 2118 ft 144 kts 120°
2026-05-04 03:25 42.54790 18.30177 2643 ft 163 kts 120°
2026-05-04 03:26 42.54212 18.31616 3060 ft 184 kts 120°
2026-05-04 03:26 42.53547 18.33237 3453 ft 210 kts 120°
2026-05-04 03:26 42.52735 18.35027 3953 ft 236 kts 129°
2026-05-04 03:26 42.51373 18.36448 4511 ft 262 kts 156°
2026-05-04 03:27 42.49533 18.36751 5261 ft 278 kts 191°
2026-05-04 03:27 42.47815 18.35583 6154 ft 281 kts 227°
2026-05-04 03:27 42.46777 18.33380 7114 ft 279 kts 252°
2026-05-04 03:27 42.46403 18.30824 8057 ft 279 kts 274°
2026-05-04 03:28 42.46625 18.28208 9000 ft 281 kts 282°
2026-05-04 03:28 42.46923 18.25564 9951 ft 286 kts 282°
2026-05-04 03:28 42.47245 18.22820 10475 ft 307 kts 283°
2026-05-04 03:28 42.47598 18.19854 10814 ft 331 kts 282°
2026-05-04 03:29 42.47966 18.16702 11390 ft 343 kts 282°
2026-05-04 03:29 42.48327 18.13524 12164 ft 349 kts 282°
2026-05-04 03:29 42.48691 18.10260 12972 ft 353 kts 282°
2026-05-04 03:29 42.49061 18.06931 13766 ft 358 kts 283°
2026-05-04 03:30 42.49436 18.03572 14476 ft 363 kts 283°
2026-05-04 03:30 42.49816 18.00174 15180 ft 367 kts 283°
2026-05-04 03:30 42.50201 17.96742 15886 ft 371 kts 283°
2026-05-04 03:30 42.50585 17.93306 16574 ft 375 kts 283°
2026-05-04 03:31 42.50983 17.89749 17283 ft 379 kts 283°
2026-05-04 03:31 42.51380 17.86196 17972 ft 383 kts 282°
2026-05-04 03:31 42.51776 17.82608 18631 ft 387 kts 282°
2026-05-04 03:31 42.52175 17.78985 19250 ft 390 kts 282°
2026-05-04 03:32 42.52576 17.75334 19892 ft 392 kts 282°
2026-05-04 03:32 42.52977 17.71656 20530 ft 395 kts 282°
2026-05-04 03:32 42.53378 17.67965 21193 ft 397 kts 282°
2026-05-04 03:32 42.53943 17.64309 21815 ft 395 kts 291°
2026-05-04 03:33 42.55028 17.60898 22411 ft 393 kts 303°
2026-05-04 03:33 42.56589 17.57889 23001 ft 391 kts 314°
2026-05-04 03:33 42.58569 17.55367 23589 ft 389 kts 326°
2026-05-04 03:33 42.60847 17.53478 24078 ft 390 kts 332°
2026-05-04 03:34 42.63206 17.51656 24575 ft 391 kts 332°
2026-05-04 03:34 42.65579 17.49813 25062 ft 393 kts 332°
2026-05-04 03:34 42.67955 17.47960 25543 ft 394 kts 332°
2026-05-04 03:34 42.70339 17.46097 26004 ft 396 kts 332°
2026-05-04 03:35 42.72734 17.44229 26465 ft 398 kts 332°
2026-05-04 03:35 42.75139 17.42357 26950 ft 399 kts 332°
2026-05-04 03:35 42.77560 17.40470 27400 ft 401 kts 331°
2026-05-04 03:35 42.79895 17.38647 27807 ft 403 kts 331°
2026-05-04 03:36 42.82334 17.36743 28237 ft 405 kts 331°
2026-05-04 03:36 42.84787 17.34826 28655 ft 407 kts 331°
2026-05-04 03:36 42.87250 17.32901 29087 ft 409 kts 331°
2026-05-04 03:36 42.89725 17.30963 29497 ft 410 kts 331°
2026-05-04 03:37 42.92203 17.29017 29876 ft 413 kts 331°
2026-05-04 03:37 42.94663 17.27084 30241 ft 415 kts 331°
2026-05-04 03:37 42.97168 17.25115 30568 ft 416 kts 331°
2026-05-04 03:37 42.99678 17.23139 30879 ft 418 kts 330°
2026-05-04 03:38 43.02205 17.21149 31213 ft 419 kts 330°
2026-05-04 03:38 43.04730 17.19159 31646 ft 418 kts 330°
2026-05-04 03:38 43.07243 17.17180 32072 ft 417 kts 330°
2026-05-04 03:38 43.09751 17.15206 32508 ft 416 kts 330°
2026-05-04 03:39 43.12259 17.13227 32941 ft 415 kts 330°
2026-05-04 03:39 43.14758 17.11250 33359 ft 414 kts 330°
2026-05-04 03:39 43.17257 17.09269 33788 ft 414 kts 330°
2026-05-04 03:39 43.19744 17.07295 34107 ft 414 kts 330°
2026-05-04 03:40 43.22225 17.05326 34158 ft 411 kts 330°
2026-05-04 03:40 43.27190 17.01385 34157 ft 413 kts 330°
2026-05-04 03:41 43.32136 16.97450 34164 ft 413 kts 330°
2026-05-04 03:41 43.37140 16.93457 34156 ft 414 kts 330°
2026-05-04 03:42 43.42099 16.89497 34150 ft 414 kts 330°
2026-05-04 03:42 43.47084 16.85514 34160 ft 414 kts 330°
2026-05-04 03:43 43.52063 16.81530 34164 ft 414 kts 330°
2026-05-04 03:43 43.57038 16.77525 34161 ft 413 kts 330°
2026-05-04 03:44 43.62006 16.73520 34156 ft 413 kts 330°
2026-05-04 03:44 43.66970 16.69514 34129 ft 413 kts 329°
2026-05-04 03:45 43.71900 16.65520 34142 ft 413 kts 329°
2026-05-04 03:45 43.76863 16.61505 34136 ft 413 kts 329°
2026-05-04 03:46 43.81839 16.57480 34139 ft 414 kts 329°
2026-05-04 03:46 43.86809 16.53441 34149 ft 414 kts 329°
2026-05-04 03:47 43.91784 16.49385 34146 ft 415 kts 329°
2026-05-04 03:47 43.96762 16.45322 34152 ft 415 kts 329°
2026-05-04 03:48 44.01737 16.41251 34132 ft 415 kts 329°
2026-05-04 03:48 44.06718 16.37178 34147 ft 416 kts 329°
2026-05-04 03:49 44.11699 16.33093 34146 ft 416 kts 329°
2026-05-04 03:49 44.16962 16.29786 34155 ft 418 kts 343°
2026-05-04 03:50 44.22606 16.28036 34164 ft 418 kts 346°
2026-05-04 03:50 44.28306 16.26296 33957 ft 421 kts 346°
2026-05-04 03:50 44.31166 16.25418 33257 ft 421 kts 346°
2026-05-04 03:51 44.34018 16.24541 32706 ft 417 kts 346°
2026-05-04 03:51 44.35889 16.23965 32334 ft 414 kts 346°
2026-05-04 03:51 44.38700 16.23095 31768 ft 414 kts 346°
2026-05-04 03:51 44.41507 16.22226 31143 ft 412 kts 346°
2026-05-04 03:52 44.44309 16.21362 30489 ft 412 kts 346°
2026-05-04 03:52 44.47118 16.20498 29736 ft 414 kts 346°
2026-05-04 03:52 44.49942 16.19625 28953 ft 417 kts 346°
2026-05-04 03:52 44.52780 16.18747 28196 ft 419 kts 346°
2026-05-04 03:53 44.55370 16.17945 27545 ft 415 kts 346°
2026-05-04 03:53 44.58180 16.17076 26909 ft 411 kts 346°
2026-05-04 03:53 44.60959 16.16215 26267 ft 407 kts 346°
2026-05-04 03:53 44.63705 16.15363 25649 ft 403 kts 347°
2026-05-04 03:54 44.66428 16.14515 25047 ft 399 kts 347°
2026-05-04 03:54 44.69094 16.13685 24464 ft 396 kts 347°
2026-05-04 03:54 44.71775 16.12850 23880 ft 393 kts 347°
2026-05-04 03:54 44.74446 16.12015 23220 ft 391 kts 347°
2026-05-04 03:55 44.77104 16.11183 22533 ft 391 kts 347°
2026-05-04 03:55 44.79754 16.10352 21864 ft 390 kts 347°
2026-05-04 03:55 44.82406 16.09521 21223 ft 389 kts 347°
2026-05-04 03:55 44.85017 16.08707 20578 ft 379 kts 347°
2026-05-04 03:56 44.87560 16.07913 19953 ft 370 kts 347°
2026-05-04 03:56 44.90064 16.07128 19366 ft 366 kts 347°
2026-05-04 03:56 44.92543 16.06349 18797 ft 363 kts 347°
2026-05-04 03:56 44.95002 16.05577 18209 ft 361 kts 348°
2026-05-04 03:57 44.97447 16.04808 17559 ft 359 kts 348°
2026-05-04 03:57 44.99874 16.04045 16931 ft 356 kts 348°
2026-05-04 03:57 45.02284 16.03287 16321 ft 353 kts 348°
2026-05-04 03:57 45.04680 16.02533 15741 ft 351 kts 348°
2026-05-04 03:58 45.09396 16.01046 14673 ft 348 kts 348°
2026-05-04 03:58 45.11747 16.00303 14147 ft 345 kts 348°
2026-05-04 03:58 45.14091 15.99562 13589 ft 343 kts 348°
2026-05-04 03:59 45.16413 15.98826 13012 ft 341 kts 348°
2026-05-04 03:59 45.18714 15.98094 12451 ft 338 kts 348°
2026-05-04 03:59 45.20986 15.97372 11909 ft 328 kts 347°
2026-05-04 03:59 45.23179 15.96675 11415 ft 318 kts 347°
2026-05-04 04:00 45.25167 15.96045 10957 ft 309 kts 347°
2026-05-04 04:00 45.27238 15.95389 10476 ft 301 kts 347°
2026-05-04 04:00 45.29266 15.94745 9997 ft 295 kts 347°
2026-05-04 04:00 45.31256 15.94112 9464 ft 291 kts 347°
2026-05-04 04:01 45.33219 15.93485 8890 ft 287 kts 347°
2026-05-04 04:01 45.35160 15.92867 8342 ft 284 kts 346°
2026-05-04 04:01 45.37054 15.92264 7791 ft 281 kts 346°
2026-05-04 04:01 45.38957 15.91658 7251 ft 278 kts 346°
2026-05-04 04:02 45.40840 15.91056 6716 ft 276 kts 346°
2026-05-04 04:02 45.42704 15.90461 6166 ft 273 kts 346°
2026-05-04 04:02 45.44546 15.89873 5612 ft 271 kts 346°
2026-05-04 04:02 45.46382 15.89286 5049 ft 270 kts 346°
2026-05-04 04:03 45.48208 15.88702 4414 ft 268 kts 346°
2026-05-04 04:03 45.50018 15.88122 3786 ft 266 kts 346°
2026-05-04 04:03 45.51813 15.87546 3210 ft 262 kts 346°
2026-05-04 04:03 45.53547 15.86991 3040 ft 250 kts 346°
2026-05-04 04:04 45.55203 15.86459 3023 ft 239 kts 346°
2026-05-04 04:04 45.56821 15.85939 3028 ft 238 kts 346°
2026-05-04 04:04 45.58447 15.85468 3025 ft 239 kts 354°
2026-05-04 04:04 45.60068 15.85847 3028 ft 239 kts 25°
2026-05-04 04:05 45.61346 15.87250 3024 ft 226 kts 48°
2026-05-04 04:05 45.62402 15.88856 3030 ft 219 kts 48°
2026-05-04 04:05 45.63445 15.90440 3023 ft 219 kts 48°
2026-05-04 04:05 45.64489 15.92018 2838 ft 218 kts 48°
2026-05-04 04:06 45.65511 15.93564 2589 ft 216 kts 48°
2026-05-04 04:06 45.66533 15.95109 2350 ft 211 kts 48°
2026-05-04 04:06 45.67521 15.96604 2035 ft 200 kts 48°
2026-05-04 04:06 45.68449 15.98009 1768 ft 189 kts 48°
2026-05-04 04:07 45.69324 15.99335 1503 ft 177 kts 47°
2026-05-04 04:07 45.70131 16.00558 1290 ft 160 kts 47°
2026-05-04 04:07 45.70848 16.01643 1064 ft 142 kts 47°
2026-05-04 04:07 45.71495 16.02630 875 ft 130 kts 48°
2026-05-04 04:08 45.72104 16.03548 717 ft 125 kts 49°
2026-05-04 04:08 45.72697 16.04443 555 ft 123 kts 49°
2026-05-04 04:08 45.73277 16.05331 393 ft 121 kts 48°
2026-05-04 04:08 45.73810 16.06147 362 ft 95 kts 46°
2026-05-04 04:09 45.74146 16.06655 360 ft 45 kts 46°
2026-05-04 04:09 45.74332 16.06939 360 ft 34 kts 46°
2026-05-04 04:09 45.74472 16.07151 358 ft 25 kts 47°
2026-05-04 04:09 45.74586 16.07325 358 ft 23 kts 46°
2026-05-04 04:10 45.74676 16.07464 362 ft 14 kts 52°
2026-05-04 04:10 45.74642 16.07560 358 ft 12 kts 138°
2026-05-04 04:10 45.74583 16.07637 359 ft 11 kts 137°
2026-05-04 04:10 45.74523 16.07716 359 ft 12 kts 138°
2026-05-04 04:11 45.74459 16.07804 362 ft 13 kts 136°
2026-05-04 04:11 45.74388 16.07896 359 ft 13 kts 146°
2026-05-04 04:11 45.74325 16.07884 359 ft 7 kts 171°
2026-05-04 04:11 45.74287 16.07932 358 ft 8 kts 137°
2026-05-04 04:12 45.74269 16.07956 359 ft 0 kts 136°
2026-05-04 04:12 45.74267 16.07959 359 ft 1 kts 136°
2026-05-04 04:12 45.74263 16.07964 359 ft 0 kts 136°